SCP
0 0 0 0 0 0 0 0 0 0 0 0 0 0 0 0 0 0 0 -0 0 -0 -0 -0 0 0 0 0 0 0 0 0 -0 -0 -0 -0 -0 -0 -0 -0 -0 -0 -0 -0 -0 -0 -0 -0 -0
0 0 0 0 0 0 0 0 0 0 0 0 0 0 0 0 0 0 0 -0 -0 0 -0 -0 0 0 0 0 0 0 0 0 0 0 -0 -0 -0 -0 -0 -0 -0 -0 -0 -0 -0 -0 -0 -0 -0
0 0 0 0 0 0 0 0 0 0 0 0 0 0 0 0 0 0 -0 -0 -0 0 0 -0 0 -0 0 0 0 0 0 0 0 0 0 0 -0 -0 0 0 -0 -0 -0 -0 -0 -0 -0 -0 -0
0 0 0 0 0 0 0 0 0 0 0 0 0 0 0 0 0 -0 -0 -0 -0 0 0 -0 0 -0 -0 0 0 0 0 0 0 0 0 -0 -0 0 -0 -0 -0 -0 -0 -0 -0 -0 -0 0 0
0 0 0 0 0 0 0 0 0 0 0 0 0 0 0 0 0 0 -0 -0 -0 -0 0 0 0 0 0 -0 -0 0 0 0 0 0 0 0 0 0 0 -0 -0 0 0 0 0 0 0 0 0
0 0 0 0 0 0 0 0 0 0 0 0 0 0 0 0 0 0 0 0 -0 -0 0 0 0 0 0 0 0 -0 -0 0 0 0 0 -0 0 0 0 0 0 0 0 0 0 0 0 0 0
0 0 0 0 0 0 0 0 0 0 0 0 0 0 0 0 0 0 0 0 0 0 0 0 0 0 0 0 0 0 0 0 0 0 0 0 0 0 0 0 0 0 0 0 0 0 0 0 -0
0 0 0 0 0 0 0 0 0 0 0 0 0 0 0 0 0 0 0 0 0 0 -0 0 0 -0 -0 -0 0 0 0 0 0 0 0 0 0 0 0 0 0 0 0 0 0 0 0 -0 -0
0 0 0 0 0 0 0 0 0 0 0 0 0 0 0 0 0 0 0 0 0 -0 -0 -0 -0 -0 -0 -0 -0 0 0 0 0 0 0 0 0 0 0 0 0 0 0 0 -0 -0 -0 -0 -0
0 0 0 0 0 0 0 0 0 0 0 0 0 0 0 0 0 0 0 0 0 0 -0 -0 -0 -0 -0 -0 -0 -0 -0 -0 -0 -0 0 -0 0 0 0 0 0 0 -0 -0 -0 -0 -0 -0 -0
0 0 0 0 0 0 0 0 0 0 0 0 0 0 0 0 0 0 0 0 0 0 0 -0 -0 -0 -0 -0 -0 -0 -0 -0 -0 -0 -0 -0 0 0 -0 0 0 -0 0 -0 -0 -0 -0 0 0
0 0 0 0 0 0 0 0 0 0 0 0 0 0 0 0 0 0 0 0 0 0 -0 -0 -0 -0 -0 -0 -0 -0 -0 -0 -0 0 -0 0 0 0 0 0 0 0 0 -0 -0 0 0 0 0
0 0 0 0 0 0 0 0 0 0 0 0 0 0 0 0 0 0 0 0 0 0 -0 -0 -0 -0 0 -0 -0 -0 -0 -0 -0 0 0 0 0 0 0 0 0 0 0 0 0 0 0 0 0
0 0 0 0 0 0 0 0 0 0 0 0 0 0 0 0 0 0 0 0 0 0 0 -0 -0 -0 -0 0 0 0 0 0 0 0 0 0 0 0 0 0 0 0 0 0 0 0 0 0 0
0 0 0 0 0 0 0 0 0 0 0 0 0 0 0 0 0 0 0 0 0 0 0 0 0 0 0 -0 0 0 0 0 0 0 0 0 0 0 0 0 0 0 0 0 0 0 0 0 0
0 0 0 0 0 0 0 0 0 0 0 0 0 0 0 0 0 0 0 0 0 0 0 0 0 0 0 0 0 0 0 0 0 0 0 0 0 0 0 0 0 0 0 0 0 0 0 0 0
0 0 0 0 0 0 0 0 0 0 0 0 0 0 0 0 0 0 0 0 0 0 0 0 0 0 0 0 0 0 0 0 0 0 0 0 0 0 0 0 0 0 0 0 0 0 0 0 0
0 0 0 0 0 0 0 0 0 0 0 0 0 0 0 0 0 0 0 0 0 0 0 0 0 0 0 0 0 0 0 0 0 0 0 0 0 0 0 0 0 0 0 0 0 0 0 0 0
0 0 0 0 0 0 0 0 0 0 0 0 0 0 0 0 0 0 0 0 0 0 0 0 0 0 0 0 0 0 0 0 0 0 0 0 0 0 0 0 0 0 0 0 0 0 0 0 0
0 0 0 0 0 0 0 0 0 0 0 0 0 0 0 0 0 0 0 0 0 0 0 0 0 0 0 0 0 0 0 0 0 0 0 0 0 0 0 0 0 0 0 0 0 0 0 0 0
0 0 0 0 0 0 0 0 0 0 0 0 0 0 0 0 0 0 0 0 0 0 0 0 0 0 0 0 0 0 0 0 0 0 0 0 0 0 0 0 0 0 0 0 0 0 0 0 0
0 0 0 0 0 0 0 -0 0 -0 0 0 0 0 0 0 0 0 0 0 0 0 0 0 0 0 0 0 0 0 0 0 0 0 0 0 0 0 0 0 0 0 0 0 0 0 0 0 0
0 0 0 0 0 0 0 -0 -0 0 0 0 0 0 0 0 0 0 0 0 0 0 0 0 0 0 0 0 0 0 0 0 0 0 0 0 0 0 0 0 0 0 0 0 0 0 0 0 0
0 0 0 0 0 0 0 0 -0 -0 0 0 0 0 0 0 0 0 0 0 0 0 0 0 0 0 0 0 0 0 0 0 0 0 0 0 0 0 0 0 0 0 0 0 0 0 0 0 0
0 0 -0 -0 0 -0 -0 -0 -0 0 0 0 0 0 0 0 0 0 0 0 0 0 0 0 0 0 0 0 0 0 0 0 0 0 0 0 0 0 0 0 0 0 0 0 0 0 0 0 0
-0 -0 0 -0 -0 -0 -0 0 0 0 0 0 0 0 0 0 0 0 0 0 0 0 0 0 0 0 0 0 0 0 0 0 0 0 0 0 0 0 0 0 0 0 0 0 0 0 0 0 0
-0 -0 -0 0 0 0 0 -0 0 0 0 0 0 0 0 0 0 0 0 0 0 0 0 0 0 0 0 0 0 0 0 0 0 0 0 0 0 0 0 0 0 0 0 0 0 0 0 0 0
-0 0 0 0 0 0 0 -0 -0 0 -0 0 0 0 0 0 0 0 0 0 0 0 0 0 0 0 0 0 0 0 0 0 0 0 0 0 0 0 0 0 0 0 0 0 0 0 0 0 0
0 0 0 0 0 0 0 0 0 0 0 0 0 0 0 0 0 0 0 0 0 0 0 0 0 0 0 0 0 0 0 0 0 0 -0 0 0 0 0 0 0 0 0 0 0 0 0 0 0
0 0 -0 0 0 0 0 0 0 0 0 0 0 0 0 0 0 0 0 0 0 0 0 0 0 0 0 0 0 0 0 0 0 0 0 0 0 0 0 0 0 0 0 0 0 0 0 0 0
Wind_Speed_500mb
2 6 7 2 9 8 8 7 6 6 6 3 9 6 3 8 4 6 19 34 41 45 44 43 37 35 35 36 34 38 42 35 35 34 28 19 14 10 3 7 14 21 23 24 26 27 27 27 28
2 3 6 4 9 14 12 4 11 6 7 11 11 7 7 7 6 11 33 37 48 45 45 44 40 36 37 37 36 38 39 35 34 29 25 20 12 5 3 7 21 20 22 24 25 26 26 25 25
4 2 8 7 9 13 7 6 12 8 13 9 7 2 2 6 6 24 20 48 50 46 44 44 40 36 38 39 37 33 27 27 24 24 21 15 10 5 5 13 16 20 22 22 23 23 23 23 22
5 5 2 11 18 11 4 4 6 8 12 7 7 8 6 6 9 16 35 52 49 46 44 45 40 36 37 37 37 35 31 26 24 21 20 18 14 9 16 20 14 21 20 18 18 19 19 18 18
5 8 9 10 15 5 8 6 6 15 8 9 11 9 6 9 16 17 42 49 48 46 43 46 40 37 37 37 35 34 29 25 24 23 23 21 19 18 27 25 17 20 19 16 13 13 13 14 13
8 7 11 19 16 7 9 8 8 15 10 9 10 13 9 15 20 29 45 42 44 45 46 44 41 36 38 34 33 30 26 23 22 23 24 23 19 20 25 21 19 17 15 14 11 9 8 8 8
18 12 18 14 11 9 10 8 11 7 12 13 5 12 8 20 27 39 47 40 42 41 45 44 43 36 39 34 29 27 21 20 19 20 22 21 18 23 23 21 19 16 13 9 7 5 4 4 4
12 11 14 14 18 17 8 5 4 10 7 9 11 7 9 29 40 45 46 42 41 41 41 43 42 41 42 37 31 26 20 15 14 16 20 23 21 21 20 17 16 15 13 9 6 3 1 1 2
11 14 22 27 21 14 10 11 5 6 6 8 10 5 9 35 46 50 53 49 46 47 44 48 44 44 41 40 35 28 21 15 12 15 18 19 19 16 15 16 14 13 10 9 8 6 5 4 5
18 22 34 19 26 12 12 10 5 8 15 16 12 14 16 42 50 57 61 60 55 57 56 55 48 45 43 41 37 33 27 21 16 16 18 21 21 19 18 16 14 12 10 10 8 7 6 7 8
16 29 33 22 20 20 15 11 9 10 14 19 23 25 27 47 53 56 58 51 49 47 58 59 54 49 48 46 43 38 32 26 20 17 17 21 21 18 17 16 13 11 10 9 9 9 9 11 12
16 29 30 27 19 14 16 12 11 19 8 5 8 20 32 49 57 60 56 49 51 49 50 61 59 56 52 48 45 40 35 30 24 19 19 19 18 18 17 16 15 14 14 14 12 13 15 15 15
23 22 18 30 15 23 12 23 21 22 16 14 12 18 32 46 55 58 47 43 47 49 55 58 60 58 53 50 47 43 38 32 25 23 19 19 16 14 14 15 16 15 16 15 15 16 16 16 16
11 20 21 13 31 18 18 29 15 22 27 27 25 21 31 43 53 54 53 51 51 53 59 59 59 60 58 53 47 42 38 33 30 27 23 20 19 18 17 17 17 17 17 18 18 18 18 17 18
11 16 16 31 19 18 23 39 29 51 26 20 18 22 30 39 45 56 53 54 52 51 51 60 61 59 59 55 50 44 39 36 33 29 27 23 20 19 18 19 18 18 19 19 20 18 18 20 22
9 12 25 20 30 20 28 49 45 58 47 53 47 31 26 38 48 50 50 51 52 51 49 51 59 59 58 56 51 48 41 38 35 32 30 27 25 23 23 22 21 20 21 21 20 20 20 23 24
15 24 36 26 17 21 35 40 49 49 51 62 62 53 44 35 42 51 54 53 54 53 51 50 52 58 57 53 51 49 45 42 39 37 35 32 30 27 26 24 21 21 21 21 22 22 24 26 28
23 20 21 24 3 15 30 40 36 23 51 57 62 65 56 48 49 47 53 55 54 54 52 50 48 52 54 55 53 51 49 47 44 42 38 33 30 26 26 24 21 23 24 23 24 26 28 31 31
17 17 19 15 17 24 26 38 45 56 43 35 56 57 59 57 60 41 50 56 57 58 59 58 53 52 55 55 58 58 57 51 45 43 37 34 30 28 28 28 27 27 28 27 26 29 30 30 30
19 25 30 26 28 23 32 42 39 48 54 62 54 49 57 56 52 47 49 55 61 62 63 64 61 58 59 58 56 57 54 49 45 39 38 36 34 33 33 32 32 33 34 31 26 28 30 32 26
23 27 20 15 24 34 33 57 55 53 58 61 66 67 62 54 57 53 51 59 63 66 66 66 67 65 65 61 56 55 51 46 46 45 39 34 33 23 21 21 17 17 21 23 24 26 29 32 33
19 13 27 24 12 14 18 25 30 42 59 56 65 66 71 64 57 53 51 61 65 68 69 65 65 68 69 66 65 62 59 54 47 40 33 34 30 29 27 27 28 29 30 31 31 32 34 35 33
7 11 7 16 23 19 32 18 29 37 38 43 61 71 68 72 67 61 70 71 64 55 59 67 70 70 72 73 71 66 61 51 41 39 38 36 32 32 33 36 37 36 33 33 33 34 33 35 37
2 8 11 14 17 24 39 31 26 33 27 27 38 61 74 74 73 67 58 67 71 67 70 71 75 75 72 73 74 71 66 61 50 45 42 38 33 33 34 32 32 33 34 35 35 33 31 29 30
11 8 6 11 13 20 20 30 39 20 18 12 10 22 43 58 70 69 66 82 79 75 73 77 76 76 74 70 71 71 67 62 55 48 43 40 43 43 41 39 38 35 35 31 29 29 31 31 30
24 25 10 14 15 17 32 22 12 3 30 31 33 39 27 33 51 60 63 74 76 72 70 66 70 75 73 69 72 76 72 67 54 48 48 48 45 40 29 21 23 21 24 27 29 32 33 34 35
10 22 36 23 29 12 14 39 34 18 20 17 19 19 33 22 29 41 58 63 67 64 56 53 55 62 65 67 69 70 60 46 44 30 25 17 6 8 12 15 17 19 23 22 26 26 28 27 27
25 6 10 14 12 17 17 32 23 6 27 34 19 24 18 16 19 34 42 50 64 61 57 49 42 47 57 61 54 52 57 52 41 3 12 10 33 34 40 42 40 40 35 23 17 13 13 16 18
11 10 14 9 10 16 16 15 4 3 11 19 20 16 15 15 17 19 31 40 54 56 50 48 46 52 53 56 63 66 56 32 17 12 18 19 28 28 31 29 22 17 12 10 11 13 15 17 20
11 29 29 16 21 21 25 35 6 7 11 17 30 22 16 15 16 19 25 31 39 47 52 54 59 61 64 69 58 44 23 15 27 15 21 27 33 28 23 17 14 12 10 8 11 15 17 18 22
Wind_Direction_500mb
69 130 147 177 222 242 214 190 291 217 211 161 149 221 181 43 354 47 156 162 167 161 164 166 166 159 156 154 147 144 151 147 145 143 140 144 155 140 108 81 106 120 113 107 102 97 98 95 92
20 143 149 197 239 209 177 175 214 298 322 137 134 147 166 99 88 145 150 161 165 160 161 167 168 164 158 155 151 151 154 152 155 157 147 162 165 150 90 94 121 127 122 114 109 104 100 99 96
316 174 215 212 226 219 176 173 304 291 160 176 158 57 43 99 135 153 158 159 162 160 161 168 170 168 165 163 157 153 163 173 179 175 174 181 196 177 98 114 126 134 130 123 115 108 102 101 101
323 263 149 233 206 216 245 40 334 191 195 225 181 145 96 153 159 161 161 160 161 162 163 166 170 170 170 170 172 173 176 179 184 191 201 207 211 188 119 138 151 142 135 124 117 111 105 101 96
284 255 216 223 225 230 236 268 287 196 184 183 194 144 129 158 162 167 163 161 163 161 165 166 170 169 169 172 178 182 188 195 200 206 213 219 216 204 175 168 150 138 136 129 121 111 103 96 90
235 259 226 219 206 222 246 220 263 222 202 172 196 155 139 168 167 163 163 164 167 163 166 169 172 172 173 173 174 178 186 194 199 201 203 204 195 177 174 167 144 143 144 138 130 113 97 85 76
254 231 236 235 229 242 237 193 240 237 218 210 185 173 156 169 165 164 163 165 167 168 167 170 175 174 176 176 176 174 174 170 180 181 187 193 189 186 183 181 169 164 157 148 137 120 102 84 64
233 242 219 223 218 236 183 223 261 237 219 198 178 188 168 183 169 167 166 167 170 173 175 174 177 177 178 180 179 177 176 167 171 180 178 189 191 182 174 170 172 171 169 170 176 197 221 290 327
209 228 230 224 207 211 177 221 196 238 217 184 189 141 175 182 172 172 175 176 179 177 184 182 179 179 180 182 183 186 188 183 186 190 190 193 186 184 187 180 172 175 188 200 203 213 241 271 291
218 228 232 227 219 207 189 224 194 229 201 204 187 191 171 181 180 181 185 184 183 186 185 189 184 182 184 186 190 193 197 197 196 195 197 196 193 197 195 201 197 195 202 214 224 226 231 252 265
196 232 234 232 213 208 214 218 199 233 228 219 209 189 182 183 187 190 194 193 188 189 190 190 192 186 188 191 194 198 202 206 208 204 196 194 197 202 202 208 209 212 210 221 236 246 257 266 278
219 230 239 241 209 196 212 216 217 221 255 164 175 194 197 192 198 199 197 195 193 196 197 194 195 195 192 195 198 203 207 212 213 209 203 197 200 206 208 212 219 226 234 239 250 265 273 280 288
235 219 242 240 231 216 199 216 230 225 220 225 242 231 214 207 205 206 200 201 198 201 202 199 199 200 199 199 202 207 208 213 217 217 215 211 213 217 221 226 232 239 252 258 262 268 278 291 298
321 278 259 275 230 224 212 231 209 228 233 244 247 242 219 213 213 209 205 205 204 207 210 208 206 204 205 205 207 209 213 215 219 221 224 220 222 228 235 245 250 256 261 267 272 280 288 290 295
289 281 245 233 231 230 215 241 230 235 226 219 225 229 227 219 213 214 217 214 209 210 216 214 213 209 210 212 212 213 214 217 221 224 228 232 233 239 246 252 258 262 262 267 277 285 290 295 298
252 236 238 205 206 221 204 242 225 235 231 239 239 233 235 232 225 219 217 217 215 212 211 218 216 215 214 214 214 216 217 219 225 228 232 235 239 240 245 249 254 257 263 266 274 279 286 296 299
222 245 229 239 214 228 212 242 238 233 232 239 241 235 233 235 231 226 221 219 220 218 216 219 222 218 217 217 217 221 220 220 226 228 230 234 238 242 246 249 249 250 255 263 270 280 287 289 294
227 226 223 223 181 270 247 243 249 237 228 234 238 238 233 233 235 233 228 222 218 219 217 222 228 220 219 221 220 224 226 224 224 227 230 229 233 237 242 244 245 247 253 260 271 278 281 288 298
283 257 253 265 277 322 268 257 248 247 238 236 240 238 236 229 237 231 234 225 220 218 220 224 224 220 217 216 225 222 227 228 227 227 226 230 233 234 237 242 249 256 260 262 265 275 282 288 304
262 260 256 269 276 277 273 269 264 259 251 244 240 237 236 237 234 230 229 224 223 223 220 222 224 219 219 218 222 227 227 230 233 230 227 227 231 238 245 252 251 250 259 264 267 276 281 286 293
247 255 256 286 304 271 275 277 261 257 250 247 244 243 240 238 234 228 224 228 223 222 225 224 224 221 219 219 221 224 227 227 227 230 227 232 233 229 237 245 255 258 262 269 275 277 279 286 290
264 251 247 264 285 264 197 275 250 231 239 238 239 237 237 235 236 230 226 227 225 226 225 225 227 226 224 218 220 224 224 225 225 226 234 237 242 242 245 250 256 259 263 264 267 270 276 282 290
273 324 266 252 257 293 248 260 260 242 253 242 234 236 236 235 233 230 230 229 221 228 233 230 227 227 227 224 222 223 225 227 225 224 228 233 242 243 247 252 253 256 260 266 268 271 270 272 274
269 279 242 255 259 250 236 229 265 235 248 258 236 239 236 233 233 231 226 230 237 246 243 240 229 228 228 227 225 224 227 227 226 226 223 236 239 240 240 248 247 248 253 260 266 270 274 282 285
204 201 222 209 205 244 200 213 249 282 293 258 282 270 252 238 236 236 231 237 244 246 241 235 232 228 228 225 224 226 227 231 231 226 228 234 241 240 241 244 248 253 257 260 269 272 274 282 279
211 208 216 234 212 258 207 231 234 324 245 257 285 269 269 249 239 238 232 235 237 235 233 235 234 231 227 224 219 219 221 225 223 223 229 241 236 238 239 247 253 261 270 274 280 284 285 285 278
183 215 241 289 281 264 231 245 264 262 278 265 272 276 256 266 244 238 235 233 223 218 221 224 226 227 223 220 219 217 216 215 200 174 136 81 318 295 280 266 260 264 268 273 284 283 291 288 291
241 357 207 207 244 246 228 244 245 228 237 249 246 262 260 274 264 244 228 221 213 214 214 213 214 220 220 210 206 191 176 168 148 122 288 290 274 284 276 275 277 278 274 269 259 269 280 280 284
188 218 221 287 254 265 261 241 144 4 4 321 310 317 306 277 258 242 225 208 209 212 212 208 202 201 203 181 175 170 161 174 187 162 206 230 243 249 254 250 232 235 235 244 261 268 272 277 288
279 254 235 236 242 239 265 265 277 187 359 334 317 320 287 256 240 217 205 198 193 193 197 192 189 189 184 170 167 170 182 188 176 152 178 211 225 219 214 212 209 213 226 260 285 291 293 295 294
Wind_Speed_850mb
2 6 7 2 9 8 8 7 6 6 6 3 9 6 3 8 4 6 19 34 41 45 44 43 37 35 35 36 34 38 42 35 35 34 28 19 14 10 3 7 14 21 23 24 26 27 27 27 28
2 3 6 4 9 14 12 4 11 6 7 11 11 7 7 7 6 11 33 37 48 45 45 44 40 36 37 37 36 38 39 35 34 29 25 20 12 5 3 7 21 20 22 24 25 26 26 25 25
4 2 8 7 9 13 7 6 12 8 13 9 7 2 2 6 6 24 20 48 50 46 44 44 40 36 38 39 37 33 27 27 24 24 21 15 10 5 5 13 16 20 22 22 23 23 23 23 22
5 5 2 11 18 11 4 4 6 8 12 7 7 8 6 6 9 16 35 52 49 46 44 45 40 36 37 37 37 35 31 26 24 21 20 18 14 9 16 20 14 21 20 18 18 19 19 18 18
5 8 9 10 15 5 8 6 6 15 8 9 11 9 6 9 16 17 42 49 48 46 43 46 40 37 37 37 35 34 29 25 24 23 23 21 19 18 27 25 17 20 19 16 13 13 13 14 13
8 7 11 19 16 7 9 8 8 15 10 9 10 13 9 15 20 29 45 42 44 45 46 44 41 36 38 34 33 30 26 23 22 23 24 23 19 20 25 21 19 17 15 14 11 9 8 8 8
18 12 18 14 11 9 10 8 11 7 12 13 5 12 8 20 27 39 47 40 42 41 45 44 43 36 39 34 29 27 21 20 19 20 22 21 18 23 23 21 19 16 13 9 7 5 4 4 4
12 11 14 14 18 17 8 5 4 10 7 9 11 7 9 29 40 45 46 42 41 41 41 43 42 41 42 37 31 26 20 15 14 16 20 23 21 21 20 17 16 15 13 9 6 3 1 1 2
11 14 22 27 21 14 10 11 5 6 6 8 10 5 9 35 46 50 53 49 46 47 44 48 44 44 41 40 35 28 21 15 12 15 18 19 19 16 15 16 14 13 10 9 8 6 5 4 5
18 22 34 19 26 12 12 10 5 8 15 16 12 14 16 42 50 57 61 60 55 57 56 55 48 45 43 41 37 33 27 21 16 16 18 21 21 19 18 16 14 12 10 10 8 7 6 7 8
16 29 33 22 20 20 15 11 9 10 14 19 23 25 27 47 53 56 58 51 49 47 58 59 54 49 48 46 43 38 32 26 20 17 17 21 21 18 17 16 13 11 10 9 9 9 9 11 12
16 29 30 27 19 14 16 12 11 19 8 5 8 20 32 49 57 60 56 49 51 49 50 61 59 56 52 48 45 40 35 30 24 19 19 19 18 18 17 16 15 14 14 14 12 13 15 15 15
23 22 18 30 15 23 12 23 21 22 16 14 12 18 32 46 55 58 47 43 47 49 55 58 60 58 53 50 47 43 38 32 25 23 19 19 16 14 14 15 16 15 16 15 15 16 16 16 16
11 20 21 13 31 18 18 29 15 22 27 27 25 21 31 43 53 54 53 51 51 53 59 59 59 60 58 53 47 42 38 33 30 27 23 20 19 18 17 17 17 17 17 18 18 18 18 17 18
11 16 16 31 19 18 23 39 29 51 26 20 18 22 30 39 45 56 53 54 52 51 51 60 61 59 59 55 50 44 39 36 33 29 27 23 20 19 18 19 18 18 19 19 20 18 18 20 22
9 12 25 20 30 20 28 49 45 58 47 53 47 31 26 38 48 50 50 51 52 51 49 51 59 59 58 56 51 48 41 38 35 32 30 27 25 23 23 22 21 20 21 21 20 20 20 23 24
15 24 36 26 17 21 35 40 49 49 51 62 62 53 44 35 42 51 54 53 54 53 51 50 52 58 57 53 51 49 45 42 39 37 35 32 30 27 26 24 21 21 21 21 22 22 24 26 28
23 20 21 24 3 15 30 40 36 23 51 57 62 65 56 48 49 47 53 55 54 54 52 50 48 52 54 55 53 51 49 47 44 42 38 33 30 26 26 24 21 23 24 23 24 26 28 31 31
17 17 19 15 17 24 26 38 45 56 43 35 56 57 59 57 60 41 50 56 57 58 59 58 53 52 55 55 58 58 57 51 45 43 37 34 30 28 28 28 27 27 28 27 26 29 30 30 30
19 25 30 26 28 23 32 42 39 48 54 62 54 49 57 56 52 47 49 55 61 62 63 64 61 58 59 58 56 57 54 49 45 39 38 36 34 33 33 32 32 33 34 31 26 28 30 32 26
23 27 20 15 24 34 33 57 55 53 58 61 66 67 62 54 57 53 51 59 63 66 66 66 67 65 65 61 56 55 51 46 46 45 39 34 33 23 21 21 17 17 21 23 24 26 29 32 33
19 13 27 24 12 14 18 25 30 42 59 56 65 66 71 64 57 53 51 61 65 68 69 65 65 68 69 66 65 62 59 54 47 40 33 34 30 29 27 27 28 29 30 31 31 32 34 35 33
7 11 7 16 23 19 32 18 29 37 38 43 61 71 68 72 67 61 70 71 64 55 59 67 70 70 72 73 71 66 61 51 41 39 38 36 32 32 33 36 37 36 33 33 33 34 33 35 37
2 8 11 14 17 24 39 31 26 33 27 27 38 61 74 74 73 67 58 67 71 67 70 71 75 75 72 73 74 71 66 61 50 45 42 38 33 33 34 32 32 33 34 35 35 33 31 29 30
11 8 6 11 13 20 20 30 39 20 18 12 10 22 43 58 70 69 66 82 79 75 73 77 76 76 74 70 71 71 67 62 55 48 43 40 43 43 41 39 38 35 35 31 29 29 31 31 30
24 25 10 14 15 17 32 22 12 3 30 31 33 39 27 33 51 60 63 74 76 72 70 66 70 75 73 69 72 76 72 67 54 48 48 48 45 40 29 21 23 21 24 27 29 32 33 34 35
10 22 36 23 29 12 14 39 34 18 20 17 19 19 33 22 29 41 58 63 67 64 56 53 55 62 65 67 69 70 60 46 44 30 25 17 6 8 12 15 17 19 23 22 26 26 28 27 27
25 6 10 14 12 17 17 32 23 6 27 34 19 24 18 16 19 34 42 50 64 61 57 49 42 47 57 61 54 52 57 52 41 3 12 10 33 34 40 42 40 40 35 23 17 13 13 16 18
11 10 14 9 10 16 16 15 4 3 11 19 20 16 15 15 17 19 31 40 54 56 50 48 46 52 53 56 63 66 56 32 17 12 18 19 28 28 31 29 22 17 12 10 11 13 15 17 20
11 29 29 16 21 21 25 35 6 7 11 17 30 22 16 15 16 19 25 31 39 47 52 54 59 61 64 69 58 44 23 15 27 15 21 27 33 28 23 17 14 12 10 8 11 15 17 18 22
Wind_Direction_850mb
69 130 147 177 222 242 214 190 291 217 211 161 149 221 181 43 354 47 156 162 167 161 164 166 166 159 156 154 147 144 151 147 145 143 140 144 155 140 108 81 106 120 113 107 102 97 98 95 92
20 143 149 197 239 209 177 175 214 298 322 137 134 147 166 99 88 145 150 161 165 160 161 167 168 164 158 155 151 151 154 152 155 157 147 162 165 150 90 94 121 127 122 114 109 104 100 99 96
316 174 215 212 226 219 176 173 304 291 160 176 158 57 43 99 135 153 158 159 162 160 161 168 170 168 165 163 157 153 163 173 179 175 174 181 196 177 98 114 126 134 130 123 115 108 102 101 101
323 263 149 233 206 216 245 40 334 191 195 225 181 145 96 153 159 161 161 160 161 162 163 166 170 170 170 170 172 173 176 179 184 191 201 207 211 188 119 138 151 142 135 124 117 111 105 101 96
284 255 216 223 225 230 236 268 287 196 184 183 194 144 129 158 162 167 163 161 163 161 165 166 170 169 169 172 178 182 188 195 200 206 213 219 216 204 175 168 150 138 136 129 121 111 103 96 90
235 259 226 219 206 222 246 220 263 222 202 172 196 155 139 168 167 163 163 164 167 163 166 169 172 172 173 173 174 178 186 194 199 201 203 204 195 177 174 167 144 143 144 138 130 113 97 85 76
254 231 236 235 229 242 237 193 240 237 218 210 185 173 156 169 165 164 163 165 167 168 167 170 175 174 176 176 176 174 174 170 180 181 187 193 189 186 183 181 169 164 157 148 137 120 102 84 64
233 242 219 223 218 236 183 223 261 237 219 198 178 188 168 183 169 167 166 167 170 173 175 174 177 177 178 180 179 177 176 167 171 180 178 189 191 182 174 170 172 171 169 170 176 197 221 290 327
209 228 230 224 207 211 177 221 196 238 217 184 189 141 175 182 172 172 175 176 179 177 184 182 179 179 180 182 183 186 188 183 186 190 190 193 186 184 187 180 172 175 188 200 203 213 241 271 291
218 228 232 227 219 207 189 224 194 229 201 204 187 191 171 181 180 181 185 184 183 186 185 189 184 182 184 186 190 193 197 197 196 195 197 196 193 197 195 201 197 195 202 214 224 226 231 252 265
196 232 234 232 213 208 214 218 199 233 228 219 209 189 182 183 187 190 194 193 188 189 190 190 192 186 188 191 194 198 202 206 208 204 196 194 197 202 202 208 209 212 210 221 236 246 257 266 278
219 230 239 241 209 196 212 216 217 221 255 164 175 194 197 192 198 199 197 195 193 196 197 194 195 195 192 195 198 203 207 212 213 209 203 197 200 206 208 212 219 226 234 239 250 265 273 280 288
235 219 242 240 231 216 199 216 230 225 220 225 242 231 214 207 205 206 200 201 198 201 202 199 199 200 199 199 202 207 208 213 217 217 215 211 213 217 221 226 232 239 252 258 262 268 278 291 298
321 278 259 275 230 224 212 231 209 228 233 244 247 242 219 213 213 209 205 205 204 207 210 208 206 204 205 205 207 209 213 215 219 221 224 220 222 228 235 245 250 256 261 267 272 280 288 290 295
289 281 245 233 231 230 215 241 230 235 226 219 225 229 227 219 213 214 217 214 209 210 216 214 213 209 210 212 212 213 214 217 221 224 228 232 233 239 246 252 258 262 262 267 277 285 290 295 298
252 236 238 205 206 221 204 242 225 235 231 239 239 233 235 232 225 219 217 217 215 212 211 218 216 215 214 214 214 216 217 219 225 228 232 235 239 240 245 249 254 257 263 266 274 279 286 296 299
222 245 229 239 214 228 212 242 238 233 232 239 241 235 233 235 231 226 221 219 220 218 216 219 222 218 217 217 217 221 220 220 226 228 230 234 238 242 246 249 249 250 255 263 270 280 287 289 294
227 226 223 223 181 270 247 243 249 237 228 234 238 238 233 233 235 233 228 222 218 219 217 222 228 220 219 221 220 224 226 224 224 227 230 229 233 237 242 244 245 247 253 260 271 278 281 288 298
283 257 253 265 277 322 268 257 248 247 238 236 240 238 236 229 237 231 234 225 220 218 220 224 224 220 217 216 225 222 227 228 227 227 226 230 233 234 237 242 249 256 260 262 265 275 282 288 304
262 260 256 269 276 277 273 269 264 259 251 244 240 237 236 237 234 230 229 224 223 223 220 222 224 219 219 218 222 227 227 230 233 230 227 227 231 238 245 252 251 250 259 264 267 276 281 286 293
247 255 256 286 304 271 275 277 261 257 250 247 244 243 240 238 234 228 224 228 223 222 225 224 224 221 219 219 221 224 227 227 227 230 227 232 233 229 237 245 255 258 262 269 275 277 279 286 290
264 251 247 264 285 264 197 275 250 231 239 238 239 237 237 235 236 230 226 227 225 226 225 225 227 226 224 218 220 224 224 225 225 226 234 237 242 242 245 250 256 259 263 264 267 270 276 282 290
273 324 266 252 257 293 248 260 260 242 253 242 234 236 236 235 233 230 230 229 221 228 233 230 227 227 227 224 222 223 225 227 225 224 228 233 242 243 247 252 253 256 260 266 268 271 270 272 274
269 279 242 255 259 250 236 229 265 235 248 258 236 239 236 233 233 231 226 230 237 246 243 240 229 228 228 227 225 224 227 227 226 226 223 236 239 240 240 248 247 248 253 260 266 270 274 282 285
204 201 222 209 205 244 200 213 249 282 293 258 282 270 252 238 236 236 231 237 244 246 241 235 232 228 228 225 224 226 227 231 231 226 228 234 241 240 241 244 248 253 257 260 269 272 274 282 279
211 208 216 234 212 258 207 231 234 324 245 257 285 269 269 249 239 238 232 235 237 235 233 235 234 231 227 224 219 219 221 225 223 223 229 241 236 238 239 247 253 261 270 274 280 284 285 285 278
183 215 241 289 281 264 231 245 264 262 278 265 272 276 256 266 244 238 235 233 223 218 221 224 226 227 223 220 219 217 216 215 200 174 136 81 318 295 280 266 260 264 268 273 284 283 291 288 291
241 357 207 207 244 246 228 244 245 228 237 249 246 262 260 274 264 244 228 221 213 214 214 213 214 220 220 210 206 191 176 168 148 122 288 290 274 284 276 275 277 278 274 269 259 269 280 280 284
188 218 221 287 254 265 261 241 144 4 4 321 310 317 306 277 258 242 225 208 209 212 212 208 202 201 203 181 175 170 161 174 187 162 206 230 243 249 254 250 232 235 235 244 261 268 272 277 288
279 254 235 236 242 239 265 265 277 187 359 334 317 320 287 256 240 217 205 198 193 193 197 192 189 189 184 170 167 170 182 188 176 152 178 211 225 219 214 212 209 213 226 260 285 291 293 295 294